Home > Weather > Zwolle > Past weeks

Flag for Netherlands Past Weather in Zwolle, Netherlands — Yesterday and Last 2 Weeks

Now
55 °F

Passing clouds.


Feels Like: 53 °F
Forecast: 58 / 63 °F
Wind: 8 mph from South

Location: Amsterdam Schiphol Airport

Current Time: Jun 29, 2016 at 4:02:56 AM

Latest Report: Jun 29, 2016 at 3:25 AM


Visibility: N/A

Pressure: 29.77 "Hg

Humidity: 100%

Dew Point: 55 °F

Location of ZwolleLocation

Past Weather in Zwolle — Graph

°F

Zwolle Temperature Yesterday

Maximum temperature yesterday: 70 °F (at 4:55 PM)
Minimum temperature yesterday: 50 °F (at 4:25 AM)
Average temperature yesterday: 61 °F

High & Low Weather Summary for the Past Weeks

 TemperatureHumidityPressure
High81 °F (Jun 23, 4:55 PM)100% (Jun 15, 2:55 AM)30.24 "Hg (Jun 15, 2:55 AM)
Low50 °F (Jun 28, 4:25 AM)56% (Jun 16, 11:25 AM)29.45 "Hg (Jun 14, 8:25 AM)
Average61 °F83%29.91 "Hg
* Reported Jun 14 2:25 AM — Jun 29 2:55 AM, Zwolle, Weather by CustomWeather, © 2016

Note: Actual official high and low records may vary slightly from our data, if they occured in-between our weather recording intervals... More about our weather records

Advertising

Zwolle Weather History for the Previous 24 Hours

Scroll right to see more
 ConditionsComfort  
Time TempWeatherWind HumidityBarometerVisibility
2:55 AM
Wed, Jun 29
57 °FPartly cloudy.7 mph94%29.77 "Hg6 mi
2:25 AM55 °FLight rain. Passing clouds.6 mph100%29.77 "HgN/A
1:55 AM55 °FPassing clouds.3 mph100%29.80 "HgN/A
1:25 AM55 °FLight rain. Passing clouds.5 mph94%29.80 "HgN/A
12:55 AM55 °FLight rain. Passing clouds.7 mph94%29.83 "HgN/A
12:25 AM55 °FLight rain. Passing clouds.7 mph94%29.83 "HgN/A
11:55 PM
Tue, Jun 28
57 °FRain. Passing clouds.13 mph88%29.83 "Hg5 mi
11:25 PM59 °FLight rain. Passing clouds.14 mph88%29.83 "Hg6 mi
10:55 PM61 °FClear.8 mph83%29.83 "Hg6 mi
10:25 PM61 °FPassing clouds.7 mph88%29.83 "HgN/A
9:55 PM61 °FPassing clouds.7 mph88%29.83 "HgN/A
9:25 PM61 °FPassing clouds.7 mph94%29.83 "Hg6 mi
8:55 PM61 °FSprinkles. Scattered clouds.12 mph94%29.83 "Hg5 mi
8:25 PM64 °FRain showers. Scattered clouds.5 mph78%29.83 "Hg4 mi
7:55 PM66 °FPassing clouds.6 mph73%29.86 "HgN/A
7:25 PM68 °FPassing clouds.5 mph69%29.86 "HgN/A
6:55 PM68 °FPassing clouds.1 mph69%29.89 "HgN/A
6:25 PM68 °FPassing clouds.2 mph69%29.89 "HgN/A
5:55 PM70 °FPassing clouds.2 mph64%29.89 "HgN/A
5:25 PM70 °FPassing clouds.5 mph69%29.92 "HgN/A
4:55 PM70 °FPassing clouds.3 mph64%29.92 "HgN/A
4:25 PM68 °FScattered clouds.7 mph73%29.95 "HgN/A
3:55 PM66 °FScattered clouds.5 mph78%29.95 "HgN/A
3:25 PM68 °FScattered clouds.6 mph73%29.95 "HgN/A
2:55 PM66 °FScattered clouds.8 mph78%29.98 "HgN/A
2:25 PM64 °FSprinkles. Scattered clouds.6 mph73%29.98 "HgN/A
1:55 PM66 °FSprinkles. Scattered clouds.8 mph68%29.98 "HgN/A
1:25 PM66 °FScattered showers. Scattered clouds.10 mph64%29.98 "HgN/A
12:55 PM66 °FScattered clouds.12 mph64%30.01 "HgN/A
12:25 PM68 °FPassing clouds.13 mph64%30.01 "HgN/A
11:55 AM68 °FPassing clouds.10 mph64%30.01 "HgN/A
11:25 AM66 °FScattered clouds.13 mph68%30.01 "HgN/A
10:55 AM64 °FPassing clouds.9 mph73%30.04 "HgN/A
10:25 AM63 °FPassing clouds.8 mph77%30.04 "HgN/A
9:55 AM59 °FScattered clouds.5 mph82%30.04 "HgN/A
8:55 AM59 °FPassing clouds.6 mph77%30.07 "HgN/A
8:25 AM59 °FSunny.6 mph77%30.04 "Hg10 mi
7:55 AM57 °FPassing clouds.5 mph82%30.07 "HgN/A
7:25 AM57 °FSunny.5 mph82%30.07 "Hg10 mi
6:55 AM55 °FSunny.3 mph94%30.07 "Hg10 mi
6:25 AM54 °FSunny.3 mph94%30.07 "Hg10 mi
5:55 AM54 °FClear.1 mph94%30.07 "Hg10 mi
5:25 AM52 °FPassing clouds.2 mph100%30.07 "HgN/A
4:55 AM52 °FPassing clouds.2 mph94%30.07 "HgN/A
4:25 AM50 °FPassing clouds.3 mph100%30.07 "HgN/A
Weather by CustomWeather, © 2016

See weather overviewHow to use our weather pages